EW5758 Weather Reports


Display with metric or nautical units.
time (UTC)temp
F
wind
direction
speed
MPH
gust
MPH
rain 1hr
in
rain 24hr
in
rain mn
in
humidity
%
barometer
mb
20260506145031 53 143 8.0 0.0 0.00 0.00 0.31 78 1009.6
20260506144559 52 153 9.0 0.0 0.00 0.00 0.31 81 1009.7
20260506144530 53 171 9.0 0.0 0.00 0.00 0.31 80 1009.7
20260506144021 53 155 10.0 0.0 0.00 0.00 0.31 81 1009.7
20260506143547 53 133 10.0 0.0 0.00 0.00 0.31 80 1009.6
20260506143101 52 186 10.0 0.0 0.00 0.00 0.31 82 1009.7
20260506143033 52 165 10.0 0.0 0.00 0.00 0.31 82 1009.6
20260506142610 51 116 10.0 0.0 0.00 0.00 0.31 83 1009.7
20260506142044 51 139 9.0 0.0 0.00 0.00 0.31 84 1009.7
20260506141647 51 134 9.0 0.0 0.00 0.00 0.31 84 1009.7
20260506141523 51 105 9.0 0.0 0.00 0.00 0.31 85 1009.7
20260506141017 51 167 9.0 0.0 0.00 0.00 0.31 84 1009.7
20260506140515 51 146 8.0 0.0 0.00 0.00 0.31 86 1009.7
20260506140034 50 134 7.0 0.0 0.00 0.00 0.31 85 1009.8
20260506135528 50 167 7.0 0.0 0.00 0.00 0.31 85 1009.8
20260506135032 50 149 8.0 0.0 0.00 0.00 0.31 86 1009.8
20260506134621 49 120 8.0 0.0 0.00 0.00 0.31 86 1009.8
20260506134526 50 152 8.0 0.0 0.00 0.00 0.31 86 1009.9
20260506134030 50 143 7.0 0.0 0.00 0.00 0.31 86 1009.9
20260506133542 50 170 8.0 0.0 0.00 0.00 0.31 85 1009.8
20260506133051 50 140 7.0 0.0 0.00 0.00 0.31 86 1009.8
20260506133021 50 144 7.0 0.0 0.00 0.00 0.31 86 1009.8
20260506132614 50 134 8.0 0.0 0.00 0.00 0.31 86 1009.8
20260506132019 50 125 8.0 0.0 0.00 0.00 0.31 87 1009.8
20260506131537 49 144 9.0 0.0 0.00 0.00 0.31 87 1009.6
20260506131520 50 130 9.0 0.0 0.00 0.00 0.31 87 1009.6
20260506131050 50 132 10.0 0.0 0.00 0.00 0.31 87 1009.6
20260506130522 50 163 10.0 0.0 0.00 0.00 0.31 87 1009.6
20260506130108 49 145 9.0 0.0 0.00 0.00 0.31 87 1009.6
20260506130021 50 157 9.0 0.0 0.00 0.00 0.31 87 1009.6
20260506125516 50 161 9.0 0.0 0.00 0.00 0.31 88 1009.6
20260506125039 50 136 9.0 0.0 0.00 0.00 0.31 88 1009.6
20260506124610 49 131 9.0 0.0 0.00 0.00 0.31 88 1009.6
20260506124526 50 152 9.0 0.0 0.00 0.00 0.31 88 1009.5
20260506124032 50 147 8.0 0.0 0.00 0.00 0.31 88 1009.5
20260506123536 50 136 9.0 0.0 0.00 0.00 0.31 88 1009.4
20260506123114 49 132 9.0 0.0 0.00 0.00 0.31 89 1009.3
20260506123036 50 120 9.0 0.0 0.00 0.00 0.31 89 1009.4
20260506122534 50 149 9.0 0.0 0.00 0.00 0.31 88 1009.4
20260506122041 50 158 9.0 0.0 0.00 0.00 0.31 87 1009.2
20260506121545 50 122 9.0 0.0 0.00 0.00 0.31 87 1009.2
20260506121513 49 143 9.0 0.0 0.00 0.00 0.31 87 1009.2
20260506121036 50 156 10.0 0.0 0.00 0.00 0.31 87 1009.1
20260506120543 50 155 10.0 0.0 0.00 0.00 0.31 86 1009.0
20260506120030 50 161 9.0 0.0 0.00 0.00 0.31 87 1009.0
20260506120012 50 138 9.0 0.0 0.00 0.00 0.31 87 1009.0
20260506115550 50 163 8.0 0.0 0.00 0.00 0.31 86 1009.0
20260506115028 50 126 7.0 0.0 0.00 0.00 0.31 87 1009.0
20260506114557 50 197 7.0 0.0 0.00 0.00 0.31 87 1008.9
20260506114518 50 126 7.0 0.0 0.00 0.00 0.31 87 1009.0
20260506114033 50 154 7.0 0.0 0.00 0.00 0.31 89 1008.9
20260506113538 50 150 8.0 0.0 0.00 0.00 0.31 89 1008.9
20260506113022 50 122 8.0 0.0 0.00 0.00 0.31 90 1009.1
20260506113003 49 132 8.0 0.0 0.00 0.00 0.31 90 1009.0
20260506112524 49 97 8.0 0.0 0.00 0.00 0.31 90 1008.9
20260506112028 49 164 8.0 0.0 0.00 0.00 0.31 91 1008.9
20260506111558 48 152 8.0 0.0 0.00 0.00 0.31 91 1008.9
20260506111522 49 135 8.0 0.0 0.00 0.00 0.31 91 1008.9
20260506111028 49 171 9.0 0.0 0.00 0.00 0.31 91 1009.0
20260506110531 48 174 9.0 0.0 0.00 0.00 0.31 91 1009.0
20260506110105 48 142 8.0 0.0 0.00 0.00 0.31 92 1009.0
20260506110016 48 200 9.0 0.0 0.00 0.00 0.31 92 1009.0
20260506105524 48 135 9.0 0.0 0.00 0.00 0.31 92 1009.1
20260506105037 48 134 10.0 0.0 0.00 0.00 0.31 92 1009.1
20260506104612 48 127 11.0 0.0 0.00 0.00 0.31 92 1009.1
20260506104525 48 149 10.0 0.0 0.00 0.00 0.31 93 1009.1
20260506104040 48 163 10.0 0.0 0.00 0.00 0.31 93 1009.1
20260506103523 48 161 9.0 0.0 0.00 0.00 0.31 93 1009.1
20260506103118 48 130 8.0 0.0 0.00 0.00 0.30 93 1009.0
20260506103052 48 131 8.0 0.0 0.00 0.00 0.30 93 1009.1
20260506102519 48 178 8.0 0.0 0.00 0.00 0.30 93 1009.0
20260506102024 48 141 10.0 0.0 0.00 0.00 0.30 93 1009.0
20260506101637 47 142 10.0 0.0 0.00 0.00 0.28 93 1008.9
20260506101526 48 130 9.0 0.0 0.00 0.00 0.29 93 1008.9
20260506101038 48 138 8.0 0.0 0.00 0.00 0.29 93 1008.8
20260506100528 48 149 8.0 0.0 0.00 0.00 0.28 93 1008.8
20260506100032 48 147 8.0 0.0 0.00 0.00 0.28 93 1008.7
20260506100010 47 130 8.0 0.0 0.00 0.00 0.28 93 1008.7
20260506095553 48 129 9.0 0.0 0.00 0.00 0.27 93 1008.7
20260506095023 48 120 7.0 0.0 0.00 0.00 0.25 93 1008.6
20260506094528 48 138 6.0 0.0 0.00 0.00 0.24 93 1008.5
20260506094514 48 126 6.0 0.0 0.00 0.00 0.24 93 1008.5
20260506094050 48 133 6.0 0.0 0.00 0.00 0.22 93 1008.5
20260506093529 48 138 7.0 0.0 0.00 0.00 0.20 93 1008.4
20260506093102 48 123 8.0 0.0 0.00 0.00 0.18 93 1008.3
20260506093027 48 127 9.0 0.0 0.00 0.00 0.17 93 1008.3
20260506092529 48 130 10.0 0.0 0.00 0.00 0.16 92 1008.2
20260506092033 48 133 9.0 0.0 0.00 0.00 0.14 92 1008.1
20260506091608 48 139 8.0 0.0 0.00 0.00 0.12 92 1008.1
20260506091518 49 131 8.0 0.0 0.00 0.00 0.12 92 1008.1
20260506091017 49 145 6.0 0.0 0.00 0.00 0.10 92 1008.0
20260506090513 49 141 6.0 0.0 0.00 0.00 0.08 92 1008.0
20260506090112 49 125 6.0 0.0 0.00 0.00 0.07 92 1007.8
20260506090033 49 134 6.0 0.0 0.00 0.00 0.07 92 1007.8
20260506085531 49 120 5.0 0.0 0.00 0.00 0.06 92 1007.7
20260506085029 49 111 5.0 0.0 0.00 0.00 0.05 92 1007.6
20260506084606 49 119 5.0 0.0 0.00 0.00 0.04 92 1007.5
20260506084525 49 122 5.0 0.0 0.00 0.00 0.04 92 1007.5
20260506084031 49 112 5.0 0.0 0.00 0.00 0.03 92 1007.3
20260506083542 49 114 5.0 0.0 0.00 0.00 0.02 91 1007.2
20260506083054 49 105 5.0 0.0 0.00 0.00 0.02 91 1007.1
20260506083021 49 116 5.0 0.0 0.00 0.00 0.02 91 1007.2
20260506082527 49 97 5.0 0.0 0.00 0.00 0.02 91 1007.1
20260506082030 49 113 5.0 0.0 0.00 0.00 0.02 91 1007.0
20260506081537 49 114 5.0 0.0 0.00 0.00 0.01 91 1007.0
20260506081525 49 126 5.0 0.0 0.00 0.00 0.01 91 1006.9
20260506081037 49 119 5.0 0.0 0.00 0.00 0.01 91 1006.9
20260506080525 49 149 4.0 0.0 0.00 0.00 0.01 91 1006.8
20260506073518 49 126 3.0 0.0 0.00 0.00 0.00 91 1006.7
20260506073051 49 147 2.0 0.0 0.00 0.00 0.00 92 1006.6
20260506073023 49 130 2.0 0.0 0.00 0.00 0.00 92 1006.7
20260506072514 49 141 2.0 0.0 0.00 0.00 0.00 92 1006.6
20260506072037 49 145 2.0 0.0 0.00 0.00 0.00 91 1006.6
20260506071551 49 139 2.0 0.0 0.00 0.00 0.00 92 1006.5
20260506071527 49 148 2.0 0.0 0.00 0.00 0.00 92 1006.5
20260506071018 49 172 2.0 0.0 0.00 0.00 0.00 92 1006.5
20260506070554 49 178 1.0 0.0 0.00 0.00 0.00 93 1006.4
20260506062514 48 57 0.0 0.0 0.00 0.00 0.00 94 1006.6
20260506062022 48 57 0.0 0.0 0.00 0.00 0.00 94 1006.6
20260506061557 47 57 1.0 0.0 0.00 0.00 0.00 94 1006.6
20260506061520 48 57 1.0 0.0 0.00 0.00 0.00 94 1006.7
20260506061042 48 57 2.0 0.0 0.00 0.00 0.00 93 1006.7
20260506060539 47 57 2.0 0.0 0.00 0.00 0.00 94 1006.7
20260505221555 49 76 2.0 0.0 0.00 0.00 0.00 88 1009.8
20260505221515 50 76 2.0 0.0 0.00 0.00 0.00 88 1010.7
20260505221016 50 76 3.0 0.0 0.00 0.00 0.00 88 1010.7
20260505220521 50 68 4.0 0.0 0.00 0.00 0.00 88 1010.7
20260505220055 50 112 3.0 0.0 0.00 0.00 0.30 87 1009.8
20260505220025 51 96 3.0 0.0 0.00 0.00 0.30 87 1010.7
20260505215557 51 97 1.0 0.0 0.00 0.00 0.30 86 1010.7
20260505215046 51 184 0.0 0.0 0.00 0.00 0.30 85 1010.7
20260505214619 51 184 0.0 0.0 0.00 0.00 0.30 85 1009.9
20260505214537 51 184 0.0 0.0 0.00 0.00 0.30 85 1010.8
20260505214014 52 184 0.0 0.0 0.00 0.00 0.30 85 1010.7
20260505213517 52 184 0.0 0.0 0.00 0.00 0.30 85 1010.8
20260505213038 51 184 0.0 0.0 0.00 0.00 0.30 85 1009.9
20260505213022 52 184 0.0 0.0 0.00 0.00 0.30 85 1010.8
20260505212520 52 184 1.0 0.0 0.00 0.00 0.30 85 1010.7
20260505212020 52 184 1.0 0.0 0.00 0.00 0.30 85 1010.8
20260505211610 52 184 0.0 0.0 0.00 0.00 0.30 84 1009.9
20260505211522 52 184 0.0 0.0 0.00 0.00 0.30 84 1010.9
20260505211036 52 184 1.0 0.0 0.00 0.00 0.30 84 1009.9
20260505210512 52 184 1.0 0.0 0.00 0.00 0.30 83 1010.0
20260505210041 52 184 1.0 0.0 0.00 0.00 0.30 83 1010.0
20260505210017 52 184 1.0 0.0 0.00 0.00 0.30 83 1010.0
20260505205516 52 184 3.0 0.0 0.00 0.00 0.30 83 1010.0
20260505205050 52 147 4.0 0.0 0.00 0.00 0.30 82 1010.0
20260505204615 52 163 5.0 0.0 0.00 0.00 0.30 82 1010.0
20260505204531 52 131 6.0 0.0 0.00 0.00 0.30 82 1009.9
20260505204032 52 106 8.0 0.0 0.00 0.00 0.30 82 1009.8
20260505203523 52 95 8.0 0.0 0.00 0.00 0.30 82 1009.7
20260505203111 52 98 8.0 0.0 0.00 0.00 0.30 83 1009.8
20260505203051 52 90 8.0 0.0 0.00 0.00 0.30 83 1009.7